Regional Weather Roundup
Issued by NWS

Home | Current Version | Previous Version | Text Only | Print | Product List | Glossary On
Versions: 1 2 3 4 5 6 7 8 9 10 11 12 13 14 15 16 17 18 19 20 21 22 23 24 25 26 27
000
ASUS46 KSEW 231610
RWRWA

WASHINGTON REGIONAL WEATHER ROUNDUP
NATIONAL WEATHER SERVICE SEATTLE WA
800 AM PST THU NOV 23 2017

NOTE:"FAIR" INDICATES FEW OR NO CLOUDS BELOW 12,000 FEET WITH NO
SIGNIFICANT WEATHER AND/OR OBSTRUCTIONS TO VISIBILITY.

WAZ507-509-555>559-231700-
SEATTLE, TACOMA, EVERETT, AND VICINITY

CITY           SKY/WX    TMP DP  RH WIND       PRES   REMARKS
EVERETT        LGT RAIN  53  51  93 S13       29.80S
BOEING FIELD   CLOUDY    56  52  86 S10       29.81F
RENTON         LGT RAIN  55  54  96 SE6       29.81S
SEATAC AIRPORT LGT RAIN  54  52  93 S10       29.82S FOG
JBLM-MCCHORD   HVY RAIN  54  54 100 W12       29.83S FOG
PUYALLUP       DRIZZLE   55  55 100 S5        29.84R
BREMERTON      LGT RAIN  53  52  96 S10       29.80S
JBLM-FT LEWIS  RAIN      54  54 100 SW8       29.83R FOG
TACOMA NARROWS LGT RAIN  53  53 100 SW9       29.83S FOG
$$

WAZ001-503-506-510-514-515-231700-
NORTH INTERIOR

CITY           SKY/WX    TMP DP  RH WIND       PRES   REMARKS
BELLINGHAM     LGT RAIN  51  51 100 S7        29.77F
FRIDAY HARBOR  LGT RAIN  50  50 100 S5        29.79S FOG
EASTSOUND      HVY RAIN  52  52 100 S7        29.78S
PORT ANGELES   RAIN      50  50 100 NW6       29.81R FOG
EDIZ HOOK      LGT RAIN  50  49  97 W6        29.81R
PORT TOWNSEND  LGT RAIN  52  52 100 VRB6      29.80S
NAS WHIDBEY    LGT RAIN  55  50  83 CALM      29.84R
ARLINGTON      LGT RAIN  55  51  86 SW8       29.80R
BURLINGTON     CLOUDY    54  52  94 CALM      29.79F FOG
$$

WAZ020-022-039-040-504-511-512-231700-
SOUTHWEST INTERIOR

CITY           SKY/WX    TMP DP  RH WIND       PRES   REMARKS
SHELTON        LGT RAIN  54  53  97 SW12      29.79F
OLYMPIA        RAIN      55  55 100 W8        29.83S FOG
CHEHALIS       LGT RAIN  55  55 100 S6        29.86S
KELSO          LGT RAIN  58  57  97 S8        29.87S
VANCOUVER      MOCLDY    61  58  90 S9        29.90R
SCAPPOOSE, OR  CLOUDY    57  56  96 VRB3      29.88S
PORTLAND, OR   MOCLDY    60  57  89 S12       29.91R
$$

WAZ021-516-517-231700-
WASHINGTON COAST

CITY           SKY/WX    TMP DP  RH WIND       PRES   REMARKS
FORKS          LGT RAIN  53  52  96 SW9       29.81S
HOQUIAM        RAIN      54  54 100 SW18      29.85R FOG
ASTORIA, OR    LGT RAIN  55  54  96 SW12      29.87S FOG
$$

WAZ019-023-024-040-567>569-231700-
CASCADE MOUNTAINS AND COLUMBIA GORGE

CITY           SKY/WX    TMP DP  RH WIND       PRES   REMARKS
STAMPEDE PASS  LGT RAIN  43  31  62 VRB6      29.80F VSB 1
TROUTDALE, OR  LGT RAIN  62  57  83 S6        29.91S
HOOD RIVER, OR RAIN      54  52  94 CALM      29.88S
THE DALLES, OR CLOUDY    51  50  96 VRB3      29.89R FOG
$$

WAZ026-027-041>044-520-521-231700-
EAST SLOPES

CITY           SKY/WX    TMP DP  RH WIND       PRES   REMARKS
OMAK           CLOUDY    43  43 100 SE8       29.75F
WENATCHEE      LGT RAIN  42  42 100 NW5       29.79S VSB<1/4
ELLENSBURG     LGT RAIN  43  41  93 NW9       29.81R VSB 1/4
YAKIMA         PTCLDY    44  43  96 NW3       29.80R FOG
SUNNYSIDE ARPT PTSUNNY   58  51  79 S12       29.83R
YAKIMA TC        N/A     42  41  95 SW3       29.77R
$$

WAZ028-034-035-231700-
COLUMBIA BASIN

CITY           SKY/WX    TMP DP  RH WIND       PRES   REMARKS
EPHRATA        FOG       43  39  86 NE3       29.79F VSB<1/4
MOSES LAKE     FOG       39  38  96 N8        29.79F VSB 1/2
PASCO          CLOUDY    59  52  77 SW7       29.84F
RICHLAND ARPT  PTSUNNY   60  55  83 SW14      29.83F
HERMISTON, OR  CLOUDY    52  51  97 SE3       29.88F
$$

WAZ036>038-231700-
NORTHEAST WASHINGTON

CITY           SKY/WX    TMP DP  RH WIND       PRES   REMARKS
SPOKANE GEIGER MOCLDY    52  50  93 SW21      29.80S
SPOKANE FELTS  CLOUDY    56  51  84 SW7       29.82S
FAIRCHILD AFB  MOCLDY    51  51 100 S17       29.80F
COEURDALENE,ID CLOUDY    56  51  84 VRB3      29.83R
DEER PARK      MOCLDY    52  50  93 S7        29.81R
$$

WAZ029>033-231700-
SOUTHEAST WASHINGTON

CITY           SKY/WX    TMP DP  RH WIND       PRES   REMARKS
PULLMAN        LGT RAIN  54  49  83 SW13      29.93R
LEWISTON, ID   LGT RAIN  52  50  93 E6        29.90R
WALLA WALLA    LGT RAIN  58  53  84 S9        29.91R
PENDLETON, OR  CLOUDY    55  52  89 SE7       29.90S
$$




USA.gov is the U.S. government's official web portal to all federal, state and local government web resources and services.